Buffalo, MN

2:50 AM CST on February 19, 2018 (GMT -0600)
Buffalo

Weather History for KCFE - November, 2012

Change the Weather History Date:

Saturday, November 24, 2012

  Actual Average (KMIC) Record (KMIC)
Temperature  
Mean Temperature 16 °F -  
Max Temperature 28 °F 37 °F 59 °F (2011)
Min Temperature 5 °F 22 °F 1 °F (1997)
Degree Days  
Heating Degree Days 48    
Moisture  
Dew Point 13 °F    
Average Humidity 80    
Maximum Humidity 92    
Minimum Humidity 67    
Precipitation  
Precipitation 0.00 in - - ()
Sea Level Pressure  
Sea Level Pressure 30.08 in    
Wind  
Wind Speed 4 mph (SSE)    
Max Wind Speed 9 mph    
Max Gust Speed -    
Visibility 10 miles    
Events      
Averages and records for this station are not official NWS values.
T = Trace of Precipitation, MM = Missing Value Source: NWS Daily Summary

Daily Weather History Graph

Daily Weather History Graph

Search for Another Location

Airport or City:

Trip Planner

Search our weather history database for the weather conditions in past years. The results will help you decide how hot, cold, wet, or windy it might be!

Date:

Astronomy

Nov. 24, 2012 Rise Set
Actual Time 7:26 AM CST 4:38 PM CST
Civil Twilight 6:53 AM CST 5:10 PM CST
Nautical Twilight 6:16 AM CST 5:47 PM CST
Astronomical Twilight 5:41 AM CST 6:22 PM CST
Moon 2:30 PM CST (11/24) 3:35 AM CST (11/24)
Length of Visible Light 10h 17m
Length of Day
9h 12m
Waxing Gibbous, 87% of the Moon is Illuminated
Nov 24
Waxing Gibbous
Nov 28
Full
Dec 6
Last Quarter
Dec 13
New
Dec 19
First Quarter

Hourly Weather History & Observations

Time (CST) Temp. Windchill Dew Point Humidity Pressure Visibility Wind Dir Wind Speed Gust Speed Precip Events Conditions
12:13 AM 12.2 °F 1.7 °F 8.6 °F 85% 30.36 in 10.0 mi NW 6.9 mph - N/A   Clear
12:33 AM 11.5 °F 0.9 °F 8.2 °F 87% 30.36 in 10.0 mi NW 6.9 mph - N/A   Clear
12:53 AM 11.5 °F 3.5 °F 7.9 °F 85% 30.36 in 10.0 mi NW 4.6 mph - N/A   Clear
1:13 AM 11.3 °F 5.1 °F 8.1 °F 87% 30.34 in 10.0 mi WNW 3.5 mph - N/A   Clear
1:33 AM 10.9 °F 4.7 °F 7.7 °F 87% 30.34 in 10.0 mi WNW 3.5 mph - N/A   Clear
1:53 AM 10.4 °F - 7.7 °F 89% 30.33 in 10.0 mi Calm Calm - N/A   Clear
2:33 AM 9.1 °F - 7.0 °F 91% 30.33 in 10.0 mi Calm Calm - N/A   Clear
2:53 AM 8.6 °F - 6.8 °F 92% 30.33 in 10.0 mi Calm Calm - N/A   Clear
3:13 AM 9.5 °F - 7.7 °F 92% 30.33 in 10.0 mi Calm Calm - N/A   Clear
3:33 AM 6.8 °F -0.1 °F 3.7 °F 87% 30.31 in 10.0 mi NE 3.5 mph - N/A   Clear
3:53 AM 6.8 °F - 4.6 °F 91% 30.31 in 10.0 mi Calm Calm - N/A   Clear
4:13 AM 7.7 °F - 5.5 °F 91% 30.31 in 10.0 mi Calm Calm - N/A   Clear
4:33 AM 7.5 °F - 5.5 °F 92% 30.30 in 10.0 mi Calm Calm - N/A   Clear
4:53 AM 6.8 °F - 4.6 °F 91% 30.30 in 10.0 mi Calm Calm - N/A   Clear
5:13 AM 5.9 °F - 3.9 °F 92% 30.29 in 10.0 mi Calm Calm - N/A   Clear
5:33 AM 7.0 °F - 5.0 °F 92% 30.29 in 10.0 mi Calm Calm - N/A   Clear
5:53 AM 6.4 °F - 4.1 °F 90% 30.29 in 10.0 mi Calm Calm - N/A   Clear
6:13 AM 5.5 °F - 3.0 °F 89% 30.29 in 10.0 mi Calm Calm - N/A   Clear
6:32 AM 5.9 °F - 4.1 °F 92% 30.28 in 10.0 mi Calm Calm - N/A   Clear
6:53 AM 5.9 °F - 3.9 °F 92% 30.27 in 10.0 mi Calm Calm - N/A   Clear
7:13 AM 5.5 °F - 3.6 °F 92% 30.26 in 10.0 mi Calm Calm - N/A   Clear
7:32 AM 5.9 °F - 4.1 °F 92% 30.26 in 10.0 mi Calm Calm - N/A   Clear
7:53 AM 6.1 °F - 3.9 °F 91% 30.25 in 10.0 mi Calm Calm - N/A   Clear
8:13 AM 7.7 °F - 5.7 °F 92% 30.24 in 10.0 mi Calm Calm - N/A   Clear
8:33 AM 8.6 °F - 6.8 °F 92% 30.24 in 10.0 mi Calm Calm - N/A   Clear
8:53 AM 11.1 °F - 8.8 °F 90% 30.23 in 10.0 mi Calm Calm - N/A   Scattered Clouds
9:13 AM 12.0 °F 4.1 °F 10.0 °F 92% 30.22 in 10.0 mi SE 4.6 mph - N/A   Scattered Clouds
9:33 AM 14.0 °F 8.2 °F 11.7 °F 90% 30.22 in 10.0 mi SE 3.5 mph - N/A   Scattered Clouds
9:53 AM 15.6 °F 7.0 °F 13.1 °F 90% 30.21 in 10.0 mi South 5.8 mph - N/A   Overcast
10:13 AM 16.5 °F - 13.6 °F 88% 30.21 in 10.0 mi Calm Calm - N/A   Overcast
10:33 AM 17.4 °F 10.4 °F 13.6 °F 85% 30.19 in 10.0 mi SE 4.6 mph - N/A   Overcast
10:53 AM 18.5 °F 8.4 °F 14.0 °F 83% 30.17 in 10.0 mi SE 8.1 mph - N/A   Overcast
11:13 AM 19.0 °F 9.0 °F 14.4 °F 82% 30.16 in 10.0 mi SE 8.1 mph - N/A   Overcast
11:33 AM 19.2 °F 10.2 °F 14.0 °F 80% 30.14 in 10.0 mi SSE 6.9 mph - N/A   Overcast
11:53 AM 19.6 °F 10.6 °F 14.4 °F 80% 30.12 in 10.0 mi SSE 6.9 mph - N/A   Overcast
12:13 PM 20.3 °F 11.5 °F 14.7 °F 79% 30.09 in 10.0 mi SSE 6.9 mph - N/A   Overcast
12:33 PM 20.7 °F 13.0 °F 14.7 °F 78% 30.07 in 10.0 mi SE 5.8 mph - N/A   Overcast
12:53 PM 21.2 °F 12.6 °F 15.3 °F 78% 30.06 in 10.0 mi SE 6.9 mph - N/A   Overcast
1:13 PM 21.9 °F 12.5 °F 15.6 °F 77% 30.04 in 10.0 mi SE 8.1 mph - N/A   Overcast
1:33 PM 22.6 °F 12.6 °F 15.6 °F 74% 30.02 in 10.0 mi SE 9.2 mph - N/A   Overcast
1:53 PM 23.0 °F 15.8 °F 16.0 °F 74% 30.00 in 10.0 mi SE 5.8 mph - N/A   Overcast
2:13 PM 23.7 °F 15.6 °F 16.5 °F 74% 29.99 in 10.0 mi SSE 6.9 mph - N/A   Overcast
2:33 PM 23.9 °F 15.0 °F 16.5 °F 73% 29.97 in 10.0 mi SE 8.1 mph - N/A   Overcast
2:53 PM 24.6 °F 17.7 °F 17.1 °F 73% 29.96 in 10.0 mi SE 5.8 mph - N/A   Overcast
3:13 PM 25.0 °F 18.1 °F 17.6 °F 74% 29.94 in 10.0 mi East 5.8 mph - N/A   Overcast
3:33 PM 25.3 °F 17.6 °F 18.1 °F 74% 29.94 in 10.0 mi ESE 6.9 mph - N/A   Overcast
3:53 PM 25.5 °F 17.8 °F 17.6 °F 72% 29.92 in 10.0 mi ESE 6.9 mph - N/A   Overcast
4:13 PM 25.7 °F 17.1 °F 17.6 °F 71% 29.90 in 10.0 mi ESE 8.1 mph - N/A   Overcast
4:33 PM 26.2 °F 20.7 °F 17.6 °F 70% 29.90 in 10.0 mi ESE 4.6 mph - N/A   Overcast
4:53 PM 26.4 °F - 17.8 °F 70% 29.90 in 10.0 mi Calm Calm - N/A   Overcast
5:13 PM 26.6 °F - 18.1 °F 70% 29.90 in 10.0 mi Calm Calm - N/A   Overcast
5:33 PM 27.1 °F 21.8 °F 18.0 °F 68% 29.90 in 10.0 mi SE 4.6 mph - N/A   Overcast
5:53 PM 27.1 °F 21.8 °F 18.0 °F 68% 29.87 in 10.0 mi SE 4.6 mph - N/A   Overcast
6:13 PM 27.1 °F 18.9 °F 18.3 °F 69% 29.86 in 10.0 mi SE 8.1 mph - N/A   Overcast
6:33 PM 27.5 °F 20.2 °F 18.1 °F 68% 29.86 in 10.0 mi SSE 6.9 mph - N/A   Overcast
6:53 PM 27.5 °F 21.1 °F 18.3 °F 68% 29.86 in 10.0 mi SSE 5.8 mph - N/A   Overcast
7:14 PM 27.5 °F 21.1 °F 18.3 °F 68% 29.86 in 10.0 mi SSE 5.8 mph - N/A   Overcast
7:33 PM 27.5 °F 21.1 °F 18.5 °F 69% 29.84 in 10.0 mi SSE 5.8 mph - N/A   Scattered Clouds
7:53 PM 27.5 °F 21.1 °F 18.5 °F 69% 29.84 in 10.0 mi SSE 5.8 mph - N/A   Mostly Cloudy
8:14 PM 27.9 °F 22.6 °F 18.9 °F 69% 29.85 in 10.0 mi South 4.6 mph - N/A   Overcast
8:33 PM 28.0 °F 24.2 °F 18.7 °F 68% 29.84 in 10.0 mi South 3.5 mph - N/A   Overcast
8:53 PM 28.2 °F 22.0 °F 18.9 °F 68% 29.82 in 10.0 mi SSE 5.8 mph - N/A   Overcast
9:13 PM 27.9 °F 22.6 °F 19.0 °F 69% 29.80 in 10.0 mi South 4.6 mph - N/A   Mostly Cloudy
9:33 PM 28.2 °F 21.0 °F 18.5 °F 67% 29.81 in 10.0 mi South 6.9 mph - N/A   Scattered Clouds
9:53 PM 28.0 °F 21.7 °F 18.7 °F 68% 29.80 in 10.0 mi South 5.8 mph - N/A   Scattered Clouds
10:13 PM 27.3 °F 23.4 °F 18.5 °F 69% 29.80 in 10.0 mi South 3.5 mph - N/A   Scattered Clouds
10:33 PM 27.9 °F 24.0 °F 19.2 °F 70% 29.80 in 10.0 mi South 3.5 mph - N/A   Mostly Cloudy
10:53 PM 27.9 °F 24.0 °F 19.6 °F 71% 29.80 in 10.0 mi South 3.5 mph - N/A   Overcast
11:13 PM 27.9 °F 24.0 °F 20.3 °F 73% 29.81 in 10.0 mi SSW 3.5 mph - N/A   Overcast
11:33 PM 28.0 °F 24.2 °F 20.3 °F 73% 29.80 in 10.0 mi SSW 3.5 mph - N/A   Overcast
11:53 PM 28.0 °F 24.2 °F 20.3 °F 73% 29.81 in 10.0 mi WSW 3.5 mph - N/A   Overcast